KB9GXK Weather Reports


time (UTC)temp
C
wind
direction
speed
KPH
gust
KPH
rain 1hr
cm
rain 24hr
cm
rain mn
cm
humidity
%
barometer
mb
20260504021608 14 183 0.0 0.0 0.00 0.00 0.00 62 1005.9
20260504021104 14 183 0.0 0.0 0.00 0.00 0.00 62 1006.0
20260504020601 14 183 0.0 0.0 0.00 0.00 0.00 62 1005.9
20260504020057 14 183 0.0 0.0 0.00 0.00 0.00 62 1005.8
20260504015554 14 183 0.0 0.0 0.00 0.00 0.00 62 1005.9
20260504015050 15 183 0.0 0.0 0.00 0.00 0.00 62 1005.7
20260504014546 15 183 0.0 0.0 0.00 0.00 0.00 60 1005.7
20260504014044 15 183 0.0 0.0 0.00 0.00 0.00 59 1005.7
20260504013541 15 182 0.0 0.0 0.00 0.00 0.00 58 1005.7
20260504013038 15 182 0.0 0.0 0.00 0.00 0.00 57 1005.6
20260504012536 16 182 0.0 0.0 0.00 0.00 0.00 56 1005.7
20260504012033 16 183 0.0 0.0 0.00 0.00 0.00 56 1005.4
20260504011530 16 182 0.0 0.0 0.00 0.00 0.00 54 1005.6
20260504011026 16 185 0.0 0.0 0.00 0.00 0.00 53 1005.5
20260504010522 17 191 0.0 0.0 0.00 0.00 0.00 53 1005.4
20260504010018 17 191 0.0 0.0 0.00 0.00 0.00 52 1005.4
20260504005515 17 191 0.0 0.0 0.00 0.00 0.00 51 1005.4
20260504005012 17 192 0.0 0.0 0.00 0.00 0.00 51 1005.3
20260504004510 18 222 1.6 1.6 0.00 0.00 0.00 49 1005.4
20260504004007 18 209 1.6 1.6 0.00 0.00 0.00 48 1005.2
20260504003503 18 145 4.8 4.8 0.00 0.00 0.00 47 1005.5
20260504003000 18 229 6.4 8.0 0.00 0.00 0.00 47 1005.3
20260504002456 18 239 4.8 4.8 0.00 0.00 0.00 47 1005.4
20260504001954 18 264 1.6 3.2 0.00 0.00 0.00 47 1005.2
20260504001451 19 202 1.6 1.6 0.00 0.00 0.00 46 1005.3
20260504000948 19 224 1.6 1.6 0.00 0.00 0.00 45 1005.5
20260504000445 19 225 4.8 9.7 0.00 0.00 0.00 45 1005.4
20260503235942 19 307 4.8 8.0 0.00 0.00 0.00 45 1005.4
20260503235440 20 227 6.4 9.7 0.00 0.00 0.00 44 1005.3
20260503234937 20 227 3.2 3.2 0.00 0.00 0.00 44 1005.5
20260503234435 20 315 6.4 9.7 0.00 0.00 0.00 43 1005.3
20260503233933 20 208 8.0 12.9 0.00 0.00 0.00 42 1005.4
20260503233429 20 231 4.8 4.8 0.00 0.00 0.00 43 1005.2
20260503232925 20 265 12.9 16.1 0.00 0.00 0.00 42 1005.4
20260503232422 20 342 4.8 4.8 0.00 0.00 0.00 42 1005.6
20260503231920 20 255 4.8 4.8 0.00 0.00 0.00 42 1005.4
20260503231417 20 230 4.8 8.0 0.00 0.00 0.00 42 1005.4
20260503230913 20 222 6.4 9.7 0.00 0.00 0.00 42 1005.4
20260503230410 20 217 11.3 14.5 0.00 0.00 0.00 42 1005.4
20260503225908 20 189 6.4 11.3 0.00 0.00 0.00 42 1005.4
20260503225404 20 192 9.7 11.3 0.00 0.00 0.00 42 1005.8
20260503224900 20 229 9.7 11.3 0.00 0.00 0.00 42 1005.7
20260503224357 20 245 12.9 20.9 0.00 0.00 0.00 41 1005.7
20260503223855 20 182 9.7 12.9 0.00 0.00 0.00 42 1005.6
20260503223353 20 245 16.1 22.5 0.00 0.00 0.00 41 1005.8
20260503222848 20 219 8.0 11.3 0.00 0.00 0.00 41 1005.7
20260503222347 20 270 9.7 17.7 0.00 0.00 0.00 41 1006.0
20260503221844 20 201 11.3 20.9 0.00 0.00 0.00 41 1006.0
20260503221343 20 195 8.0 9.7 0.00 0.00 0.00 41 1005.9
20260503220838 20 242 17.7 20.9 0.00 0.00 0.00 41 1005.8
20260503220335 20 233 11.3 12.9 0.00 0.00 0.00 41 1006.3
20260503215832 20 251 11.3 17.7 0.00 0.00 0.00 42 1006.1
20260503215329 20 150 16.1 17.7 0.00 0.00 0.00 41 1006.1
20260503214827 20 227 17.7 22.5 0.00 0.00 0.00 41 1006.1
20260503214324 20 237 11.3 17.7 0.00 0.00 0.00 41 1006.4
20260503213822 20 232 22.5 25.7 0.00 0.00 0.00 41 1006.5
20260503213319 19 280 14.5 17.7 0.00 0.00 0.00 41 1006.5
20260503212816 20 227 22.5 29.0 0.00 0.00 0.00 40 1006.7
20260503212314 20 202 6.4 8.0 0.00 0.00 0.00 40 1006.4
20260503211811 20 202 14.5 20.9 0.00 0.00 0.00 39 1006.9
20260503211308 20 261 9.7 14.5 0.00 0.00 0.00 40 1006.8
20260503210807 20 233 9.7 11.3 0.00 0.00 0.00 40 1006.8
20260503210306 20 237 16.1 22.5 0.00 0.00 0.00 40 1006.7
20260503205800 20 148 14.5 17.7 0.00 0.00 0.00 41 1007.2
20260503205257 20 255 16.1 27.4 0.00 0.00 0.00 42 1007.0
20260503204753 19 231 12.9 17.7 0.00 0.00 0.00 43 1006.9
20260503204251 19 231 11.3 20.9 0.00 0.00 0.00 45 1007.2
20260503203748 19 282 17.7 22.5 0.00 0.00 0.00 45 1007.2
20260503203246 19 146 12.9 17.7 0.00 0.00 0.00 46 1007.7
20260503202743 18 137 12.9 22.5 0.00 0.00 0.00 46 1007.4
20260503202241 18 226 11.3 17.7 0.00 0.00 0.00 47 1007.7
20260503201738 18 217 22.5 35.4 0.00 0.00 0.00 46 1007.9
20260503201235 18 202 11.3 12.9 0.00 0.00 0.00 46 1008.0
20260503200732 18 237 14.5 16.1 0.00 0.00 0.00 46 1008.3
20260503200228 18 217 14.5 20.9 0.00 0.00 0.00 47 1008.2
20260503195725 18 194 11.3 14.5 0.00 0.00 0.00 46 1008.4
20260503195222 18 155 16.1 29.0 0.00 0.00 0.00 44 1008.4
20260503194720 18 235 12.9 17.7 0.00 0.00 0.00 45 1008.4
20260503194215 17 179 12.9 16.1 0.00 0.00 0.00 44 1008.4
20260503193711 17 210 16.1 20.9 0.00 0.00 0.00 44 1008.7
20260503193208 17 265 8.0 12.9 0.00 0.00 0.00 44 1008.6
20260503192703 17 201 9.7 11.3 0.00 0.00 0.00 45 1008.7
20260503192159 16 198 14.5 17.7 0.00 0.00 0.00 45 1008.7
20260503191655 17 243 14.5 20.9 0.00 0.00 0.00 46 1008.8
20260503191153 17 196 11.3 12.9 0.00 0.00 0.00 46 1008.9
20260503190649 17 207 9.7 11.3 0.00 0.00 0.00 45 1008.7
20260503190146 16 192 8.0 11.3 0.00 0.00 0.00 47 1008.7
20260503185643 16 181 12.9 14.5 0.00 0.00 0.00 48 1008.8
20260503185138 16 197 9.7 11.3 0.00 0.00 0.00 48 1008.9
20260503184634 16 192 9.7 17.7 0.00 0.00 0.00 47 1008.8
20260503184130 16 169 22.5 25.7 0.00 0.00 0.00 47 1009.1
20260503183627 16 169 11.3 17.7 0.00 0.00 0.00 48 1009.0
20260503183124 16 199 16.1 25.7 0.00 0.00 0.00 47 1009.1
20260503182622 16 293 14.5 16.1 0.00 0.00 0.00 48 1009.2
20260503182120 15 173 24.1 37.0 0.00 0.00 0.00 48 1009.3
20260503181617 16 163 24.1 29.0 0.00 0.00 0.00 50 1009.4
20260503181114 16 204 12.9 16.1 0.00 0.00 0.00 49 1009.6
20260503180611 16 159 22.5 25.7 0.00 0.00 0.00 50 1009.6
20260503180109 16 238 9.7 12.9 0.00 0.00 0.00 51 1010.0
20260503175605 16 188 16.1 27.4 0.00 0.00 0.00 54 1010.0
20260503175102 15 184 19.3 22.5 0.00 0.00 0.00 55 1010.1
20260503174559 14 207 11.3 14.5 0.00 0.00 0.00 57 1010.2
20260503174056 14 242 9.7 16.1 0.00 0.00 0.00 57 1010.3
20260503173551 13 198 22.5 27.4 0.00 0.00 0.00 57 1010.8
20260503173047 13 203 9.7 12.9 0.00 0.00 0.00 59 1010.6
20260503172545 13 152 8.0 9.7 0.00 0.00 0.00 60 1011.2
20260503172042 12 231 6.4 12.9 0.00 0.00 0.00 61 1010.9
20260503171538 12 69 14.5 24.1 0.00 0.00 0.00 60 1011.4
20260503171036 12 197 20.9 29.0 0.00 0.00 0.00 60 1011.2
20260503170532 12 155 8.0 11.3 0.00 0.00 0.00 61 1011.3
20260503150924 13 174 11.3 16.1 0.00 0.00 0.00 54 1012.6
20260503150421 13 206 17.7 20.9 0.00 0.00 0.00 54 1012.5
20260503131314 12 207 9.7 12.9 0.00 0.00 0.00 52 1013.2
20260503130812 11 227 6.4 9.7 0.00 0.00 0.00 53 1013.2
20260503130309 11 218 11.3 14.5 0.00 0.00 0.00 52 1013.0
20260503110703 10 232 8.0 12.9 0.00 0.00 0.00 52 1013.0
20260503110200 10 217 9.7 11.3 0.00 0.00 0.00 52 1013.2
20260503100126 10 220 16.1 22.5 0.00 0.00 0.00 50 1013.3
20260503081516 8 246 3.2 3.2 0.00 0.00 0.00 54 1014.2
20260503081013 8 238 4.8 4.8 0.00 0.00 0.00 54 1014.3
20260503080509 8 242 6.4 8.0 0.00 0.00 0.00 53 1014.1
20260503072443 8 255 8.0 9.7 0.00 0.00 0.00 55 1014.2
20260503071940 8 240 6.4 8.0 0.00 0.00 0.00 55 1014.3
20260503071437 7 249 6.4 9.7 0.00 0.00 0.00 55 1014.4
20260503070933 7 283 3.2 4.8 0.00 0.00 0.00 56 1014.3
20260503070430 7 227 3.2 4.8 0.00 0.00 0.00 57 1014.5
20260503054844 7 200 1.6 3.2 0.00 0.00 0.00 59 1015.0
20260503054339 7 238 3.2 3.2 0.00 0.00 0.00 58 1015.2
20260503053837 7 251 4.8 4.8 0.00 0.00 0.00 58 1015.1
20260503053336 7 214 1.6 3.2 0.00 0.00 0.00 58 1015.1
20260503052832 7 253 3.2 4.8 0.00 0.00 0.00 59 1015.3
20260503052329 7 233 4.8 4.8 0.00 0.00 0.00 59 1015.4
20260503051825 7 190 1.6 3.2 0.00 0.00 0.00 59 1015.3
20260503051321 7 228 3.2 3.2 0.00 0.00 0.00 60 1015.3
20260503050818 7 204 0.0 1.6 0.00 0.00 0.00 61 1015.2
20260503050314 7 194 3.2 3.2 0.00 0.00 0.00 61 1015.5
20260503045812 7 172 1.6 1.6 0.00 0.00 0.00 62 1015.4
20260503045310 7 238 3.2 3.2 0.00 0.00 0.00 62 1015.4
20260503044806 7 205 1.6 1.6 0.00 0.00 0.00 62 1015.5
20260503044303 7 208 1.6 1.6 0.00 0.00 0.00 61 1015.5
20260503043800 7 219 3.2 3.2 0.00 0.00 0.00 61 1015.5
20260503043257 7 205 1.6 1.6 0.00 0.00 0.00 62 1015.4
20260503042753 6 234 1.6 3.2 0.00 0.00 0.00 63 1015.4
20260503042250 7 213 1.6 1.6 0.00 0.00 0.00 62 1015.6
20260503041745 7 209 1.6 3.2 0.00 0.00 0.00 62 1015.3
20260503041244 7 215 1.6 1.6 0.00 0.00 0.00 62 1015.5
20260503040741 7 201 3.2 4.8 0.00 0.00 0.00 62 1015.6
20260503040238 7 229 1.6 1.6 0.00 0.00 0.00 62 1015.4
20260503035735 7 238 4.8 4.8 0.00 0.00 0.00 61 1015.7
20260503035233 7 232 3.2 3.2 0.00 0.00 0.00 61 1015.7
20260503034730 7 215 1.6 1.6 0.00 0.00 0.00 62 1015.9
20260503034226 7 215 1.6 3.2 0.00 0.00 0.00 62 1015.7
20260503033724 7 187 1.6 1.6 0.00 0.00 0.00 63 1016.0
20260503033221 7 224 1.6 1.6 0.00 0.00 0.00 64 1015.7
20260503032720 7 193 0.0 1.6 0.00 0.00 0.00 64 1015.7
20260503032218 7 209 1.6 1.6 0.00 0.00 0.00 64 1015.9
20260503031714 7 171 1.6 1.6 0.00 0.00 0.00 66 1016.1
20260503031213 6 199 0.0 1.6 0.00 0.00 0.00 67 1016.0
20260503030708 6 156 1.6 1.6 0.00 0.00 0.00 70 1016.2
20260503030205 6 234 1.6 1.6 0.00 0.00 0.00 74 1016.0
20260503025702 6 185 1.6 1.6 0.00 0.00 0.00 78 1016.1
20260503025200 6 189 0.0 0.0 0.00 0.00 0.00 80 1016.2
20260503024656 6 189 0.0 0.0 0.00 0.00 0.00 81 1016.2
20260503024154 6 191 0.0 1.6 0.00 0.00 0.00 81 1016.3
20260503023650 6 184 0.0 0.0 0.00 0.00 0.00 82 1016.1
20260503023147 6 185 0.0 0.0 0.00 0.00 0.00 82 1016.0
20260503022644 6 182 0.0 0.0 0.00 0.00 0.00 81 1016.3
20260503022143 6 185 1.6 1.6 0.00 0.00 0.00 81 1016.1